Location: *
(61.6667°N, 33.1333°E)
Time: 18:29:20
(UTC+00:00)

Daily predictions for brighter satellites

Satellite Brightness Start Highest point End
(mag) Time Altitude Azimuth Time Altitude Azimuth Time Altitude Azimuth
Lacrosse 5 2.6 15:03:01 10° W 15:07:54 49° S 15:12:46 10° ESE
Cosmos 1626 2.8 15:07:31 10° NNW 15:11:13 61° W 15:14:54 10° S
Cosmos 1302 Rocket 4.2 15:06:34 10° S 15:11:39 53° ESE 15:16:46 10° NE
Cosmos 1833 Rocket 2.7 15:06:05 10° NW 15:11:43 67° NE 15:17:20 10° SE
SL-16 R/B 4.2 15:07:41 10° NNE 15:13:05 31° NW 15:18:27 10° WSW
NOSS 3-3 (A) 4.5 15:07:53 10° WNW 15:14:49 89° SSW 15:22:41 10° ESE
Cosmos 1726 Rocket 4.3 15:11:03 10° SSE 15:14:53 30° E 15:18:41 10° NNE
NOSS 3-3 (C) 4.5 15:07:59 10° WNW 15:14:54 90° SSW 15:22:47 10° ESE
Ariane Rocket 3.5 15:10:36 10° ESE 15:15:21 40° NE 15:20:06 10° NNW
CZ-4 R/B 1.5 15:11:53 10° SSE 15:16:02 63° ENE 15:20:15 10° NNW
Cosmos 2239 Rocket 4.5 15:10:52 10° NNW 15:17:06 79° ENE 15:23:16 10° SSE
Okean O Rocket 4.4 15:15:11 10° SSW 15:18:52 25° W 15:22:34 10° NW
SMAP 4.0 15:14:57 10° S 15:19:31 55° WSW 15:24:07 10° NNW
Cosmos 1271 Rocket 2.9 15:16:05 10° NNW 15:20:04 85° WSW 15:24:04 10° SSE
Cosmos 2228 3.7 15:16:53 10° SSE 15:20:49 34° E 15:24:46 10° NNE
Cosmos 1242 Rocket 2.6 15:17:08 10° NNW 15:20:50 62° ENE 15:24:29 10° SSE
ARGOS 4.3 15:16:40 10° E 15:20:58 25° NE 15:25:18 10° N
Cosmos 1452 Rocket 4.4 15:17:38 10° WSW 15:22:45 50° NW 15:27:55 10° NNE
Cosmos 1937 Rocket 4.4 15:18:49 10° NNW 15:23:27 32° NNE 15:28:04 10° E
CZ-4 R/B 4.4 15:19:27 10° SSE 15:23:33 73° ENE 15:27:41 10° NNW
Cosmos 1821 Rocket 4.0 15:18:29 10° NNW 15:24:37 89° W 15:30:46 10° SSE
Cosmos 1605 Rocket 4.1 15:18:38 10° NNW 15:24:48 54° ENE 15:30:49 10° SE
Cosmos 1726 3.3 15:22:35 10° SE 15:25:21 21° E 15:28:09 10° NE
Cosmos 1777 Rocket 4.0 15:20:16 10° NW 15:25:33 79° NE 15:30:47 10° SE
COBE Rocket 4.4 15:21:29 10° NNE 15:26:28 43° E 15:31:22 10° SSE
Timation 1 Rocket 4.4 15:22:06 10° SSW 15:28:01 68° SE 15:33:58 10° NE
Cosmos 1455 Rocket 4.2 15:24:05 10° SW 15:28:23 47° WNW 15:32:42 10° N
Cosmos 2058 Rocket 3.9 15:26:07 10° SSE 15:29:52 29° E 15:33:38 10° NNE
Cosmos 2227 Rocket 3.3 15:25:08 10° W 15:30:30 40° NNW 15:35:52 10° NE
Cosmos 921 Rocket 4.1 15:27:03 10° SSE 15:30:44 25° E 15:34:22 10° NE
CZ-2D R/B 3.6 15:28:47 10° SE 15:32:28 44° ENE 15:36:12 10° N
SPOT 3 Rocket 4.4 15:28:25 10° ESE 15:32:54 30° NE 15:37:25 10° N
Okean-O 3.5 15:28:39 10° S 15:33:01 56° WSW 15:37:25 10° NNW
Cosmos 2227 4.4 15:27:37 10° SW 15:33:20 78° NW 15:39:07 10° NE
EO 1 Delta rocket 4.1 15:28:58 10° SE 15:33:30 55° ENE 15:38:39 10° N
Cosmos 2082 Rocket 2.3 15:27:45 10° NW 15:33:31 69° NE 15:39:13 10° SE
Cosmos 1934 Rocket 4.0 15:29:31 10° NNW 15:35:52 79° ENE 15:42:14 10° SSE
Cosmos 2297 Rocket 3.3 15:30:52 10° W 15:36:09 39° NNW 15:41:28 10° NE
COSMOS 2406 3.7 15:31:56 10° NW 15:37:41 66° SW 15:43:23 10° SSE
Cosmos 1184 Rocket 3.9 15:35:14 10° SW 15:38:28 47° WNW 15:41:42 10° N
COSMO-SKYMED 1 3.1 15:34:53 10° NNE 15:38:59 38° E 15:43:02 10° SSE
USA 116 4.5 15:36:58 10° NE 15:39:21 20° E 15:41:46 10° SE
Cosmos 1535 Rocket 4.5 15:33:56 10° NNW 15:40:15 83° ENE 15:46:27 10° SSE
H-2A R/B 4.3 15:37:49 10° S 15:41:32 41° W 15:45:19 10° NNW
Cosmos 1703 3.2 15:37:52 10° NNW 15:41:51 70° ENE 15:45:47 10° SSE
Cosmos 2058 4.0 15:38:15 10° N 15:41:55 27° ENE 15:45:32 10° ESE
Nadezhda 3 Rocket 4.0 15:36:50 10° S 15:43:04 68° E 15:49:25 10° NNE
CZ-4B R/B 4.1 15:41:40 10° N 15:43:51 18° NW 15:46:01 10° W
SJ 16-02 2.4 15:41:21 10° NNW 15:45:15 29° NE 15:48:24 14° E
Meteor 2-10 4.5 15:41:41 10° SSE 15:46:13 35° E 15:50:47 10° NNE
CSL-04 Debris 4.3 15:42:06 10° SSE 15:47:36 88° WSW 15:53:09 10° NNW
HJ-1C 3.9 15:45:53 10° SE 15:49:03 38° ENE 15:52:13 10° N
Cosmos 1110 Rocket 4.5 15:44:19 10° SW 15:49:36 65° NW 15:54:54 10° NNE
Cosmos 1953 Rocket 4.1 15:45:36 10° NNW 15:49:59 64° W 15:54:18 10° S
H-2A R/B 2.9 15:45:52 10° ESE 15:50:37 34° NE 15:55:28 10° N
USA 186 2.8 15:53:56 18° ENE 15:54:12 18° ENE 15:56:04 10° NNE
Meteor 1-11 4.3 15:48:40 10° NNW 15:54:27 84° ENE 16:00:15 10° SSE
Resurs 01 Rocket 3.1 15:53:55 15° E 15:56:10 21° NE 15:59:29 10° N
Cosmos 332 Rocket 4.0 15:52:39 10° SW 15:57:31 77° NW 16:02:28 10° NE
Cosmos 1953 2.3 15:53:37 10° S 15:57:42 79° ESE 16:01:48 10° NNE
FREGAT/IRIS 3.4 15:56:19 18° ESE 15:57:48 28° ENE 16:00:18 10° N
SJ-6B 3.6 15:57:41 15° ESE 16:00:13 30° ENE 16:03:31 10° N
Cosmos 1844 Rocket 2.9 15:55:33 10° SSW 16:00:59 51° ESE 16:06:27 10° NE
YAOGAN 6 3.2 15:59:17 10° S 16:02:55 60° WSW 16:06:32 10° NNW
Cosmos 1758 3.8 16:01:11 10° SSW 16:05:09 63° WNW 16:09:08 10° N
Cosmos 2100 Rocket 4.2 15:59:56 10° N 16:06:01 49° ENE 16:12:00 10° SE
SL-27 R/B 3.7 16:04:02 10° NNW 16:06:49 23° NE 16:07:58 19° ENE
Cosmos 1898 Rocket 3.7 16:02:32 10° NNW 16:07:43 53° NE 16:11:57 15° ESE
GEOS 3 Rocket 3.9 16:05:30 15° ENE 16:09:40 61° N 16:14:47 10° W
SJ-11-01 4.5 16:05:51 10° SE 16:10:24 51° ENE 16:14:57 10° NNW
MOS 1 4.3 16:04:51 10° SE 16:10:26 64° ENE 16:16:03 10° NNW
Cosmos 1606 Rocket 3.5 16:06:31 10° SSW 16:10:54 87° ESE 16:15:17 10° NNE
Meteor 1-16 Rocket 4.1 16:05:54 10° S 16:11:19 62° E 16:16:37 10° NNE
Envisat 4.1 16:06:51 10° S 16:11:46 47° W 16:16:43 10° NNW
MONITOR-E 4.1 16:10:10 16° SE 16:12:09 48° ENE 16:14:54 10° N
IRS-1A Rocket 4.2 16:07:27 10° SSE 16:12:57 78° ENE 16:18:31 10° NNW
Cosmos 2219 4.4 16:08:15 10° WNW 16:13:24 33° N 16:18:09 12° ENE
ASTEX 1 3.4 16:10:04 10° N 16:15:02 87° E 16:20:02 10° S
Cosmos 1818 3.8 16:09:46 10° W 16:15:14 66° NNW 16:19:36 16° ENE
Cosmos 1461 3.9 16:13:29 10° WNW 16:17:18 42° SW 16:21:13 10° SSE
CZ-2C R/B 3.9 16:14:52 17° ESE 16:18:50 38° NE 16:24:04 10° NNW
Cosmos 1153 Rocket 4.4 16:13:09 10° NNW 16:19:21 75° ENE 16:25:29 10° SSE
Cosmos 2278 Rocket 3.0 16:17:48 10° SSE 16:22:29 27° ESE 16:27:12 10° NE
Terra 3.9 16:21:11 11° NE 16:22:45 13° NNE 16:24:45 10° N
Cosmos 1908 3.4 16:19:06 10° S 16:22:51 47° E 16:26:37 10° NNE
Cosmos 2084 Rocket 4.0 16:18:39 10° WNW 16:23:01 56° SSW 16:26:23 16° SE
SL-08 RB Rocket 4.4 16:24:24 23° ESE 16:26:30 34° ENE 16:30:36 10° N
Cosmos 1844 3.8 16:21:10 10° SSW 16:26:48 59° ESE 16:32:31 10° NE
ATLAS 5 CENTAUR R/B 1.9 16:22:35 10° SW 16:26:59 53° SE 16:30:15 21° ENE
SKYMED 2 3.5 16:22:51 10° NNE 16:27:14 83° ESE 16:31:36 10° SSW
Cosmos 1939 Rocket 3.1 16:24:08 10° SSE 16:28:09 75° WSW 16:32:16 10° NNW
Cosmos 1607 3.9 16:22:44 10° WSW 16:28:56 84° NNW 16:34:02 16° ENE
Cosmos 2016 Rocket 4.3 16:22:59 10° N 16:29:01 48° ENE 16:34:00 15° SE
Cosmos 1356 3.3 16:26:14 10° S 16:29:38 61° ESE 16:33:04 10° NNE
Cosmos 1812 Rocket 4.2 16:25:56 10° SSE 16:29:57 34° E 16:34:00 10° NNE
SL-24 R/B - RUBIN 2 4.1 16:25:31 10° WSW 16:30:47 86° NNW 16:35:24 17° ENE
Cosmos 1470 4.2 16:28:40 10° SW 16:32:28 40° WNW 16:36:15 10° N
Cosmos 1076 Rocket 3.4 16:28:38 10° NNW 16:33:03 74° ENE 16:37:25 10° SSE
YAOGAN 1 4.0 16:35:15 10° SSW 16:39:20 40° W 16:43:27 10° NNW
ATLAS CENTAUR R/B 1.9 16:35:38 10° WNW 16:40:24 62° N 16:42:38 29° E
Cosmos 304 Rocket 4.2 16:37:52 10° SW 16:42:39 63° NW 16:47:28 10° NNE
Cosmos 371 Rocket 4.5 16:39:32 10° WSW 16:44:07 41° NW 16:48:43 10° NNE
Cosmos 2061 Rocket 4.1 16:38:11 10° NNW 16:44:26 59° ENE 16:49:21 16° SE
Cosmos 292 Rocket 3.8 16:40:43 10° S 16:45:20 53° ESE 16:49:59 10° NE
Cosmos 2263 Rocket 3.0 16:41:59 10° WSW 16:47:30 50° NNW 16:53:00 10° NE
Cosmos 1408 3.7 16:46:39 10° N 16:49:41 29° NE 16:49:41 29° NE
Lacrosse 5 3.3 16:45:50 10° W 16:50:13 30° SSW 16:53:36 15° SSE
CZ-4 R/B 3.7 16:47:47 10° SSW 16:51:24 27° W 16:55:04 10° NNW
Cosmos 1726 Rocket 4.3 16:48:11 10° SSW 16:52:30 56° WNW 16:56:49 10° N
Ariane Rocket 3.6 16:49:11 10° S 16:54:13 58° WSW 16:59:18 10° NNW
Cosmos 1833 Rocket 3.8 16:50:14 10° NW 16:55:31 43° WSW 17:00:47 10° S
Cosmos 1892 2.8 16:51:58 10° N 16:55:44 51° ENE 16:56:17 46° E
Cosmos 2228 4.0 16:54:03 10° SW 16:58:18 49° WNW 17:02:32 10° N
Cosmos 1726 2.5 16:56:38 10° SSW 17:00:16 62° WNW 17:03:56 10° N
ARGOS 3.1 16:56:53 21° SSE 17:00:34 73° ENE 17:06:02 10° NNW
Cosmos 1825 3.3 16:59:31 10° N 17:02:18 28° NE 17:02:18 28° NE
Cosmos 1992 Rocket 4.2 16:57:52 10° SW 17:03:07 73° NW 17:08:22 10° NNE
Cosmos 858 Rocket 4.4 16:59:43 10° NW 17:04:58 84° NE 17:07:27 32° SE
Cosmos 1937 Rocket 3.4 17:00:55 10° NW 17:06:08 83° ENE 17:08:28 33° SE
Cosmos 1339 Rocket 4.4 17:00:14 10° SSW 17:06:21 90° NE 17:12:35 10° NNE
Cosmos 2151 2.9 17:02:53 10° NNW 17:07:11 65° ENE 17:08:22 44° SE
Cosmos 2298 Rocket 4.2 17:02:21 10° NNW 17:07:38 57° NE 17:09:22 39° ESE
Cosmos 2058 Rocket 3.7 17:03:20 10° SSW 17:07:38 58° WNW 17:11:59 10° N
Cosmos 1459 Rocket 3.9 17:01:34 10° NNW 17:07:46 90° S 17:14:03 10° SSE
Cosmos 921 Rocket 3.2 17:04:09 10° SW 17:08:39 76° WNW 17:13:07 10° NNE
Cosmos 1238 Rocket 4.5 17:03:27 10° N 17:09:48 45° ENE 17:12:04 34° ESE
Cosmos 1743 Rocket 4.3 17:06:11 10° N 17:10:02 33° ENE 17:10:02 33° ENE
SPOT 3 Rocket 3.6 17:07:54 18° SSE 17:11:54 84° WSW 17:17:10 10° NNW
Cosmos 2084 3.6 17:07:46 10° SW 17:12:11 58° SSE 17:12:52 51° ESE
Meteor 2-1 Rocket 4.4 17:10:03 26° SSE 17:12:41 45° E 17:18:01 10° NNE
Cosmos 990 Rocket 4.0 17:08:14 10° NW 17:13:27 79° WSW 17:16:10 29° SSE
COSMO-SKYMED 1 3.6 17:11:05 10° N 17:15:17 47° WNW 17:19:27 10° SW
USA 116 4.0 17:12:27 10° N 17:15:30 50° WNW 17:18:35 10° SW
Cosmos 2227 Rocket 3.4 17:10:45 10° WNW 17:15:53 33° N 17:18:55 20° NE
Cosmos 2082 Rocket 3.3 17:12:05 10° NW 17:17:27 42° WSW 17:22:45 10° S
Cosmos 2058 3.3 17:15:01 10° NNW 17:19:12 64° W 17:21:55 21° S
Cosmos 2297 Rocket 3.4 17:16:26 10° WNW 17:21:32 33° N 17:24:18 22° NE
SJ 16-02 1.3 17:19:55 10° NNW 17:24:21 84° WSW 17:25:24 52° SSE
USA 186 3.0 17:25:39 34° WNW 17:25:39 34° WNW 17:27:27 10° NNW
Cosmos 1300 3.6 17:26:30 36° NNE 17:26:30 36° NNE 17:28:55 10° NNE
Cosmos 1802 Rocket 4.1 17:20:57 10° NNW 17:27:25 82° W 17:32:57 15° S
Spot 2 Rocket 3.6 17:26:41 48° E 17:27:29 53° ENE 17:32:26 10° NNW
Cosmos 1727 Rocket 3.9 17:21:32 10° SSW 17:27:43 90° W 17:33:57 10° NNE
FREGAT/IRIS 4.3 17:27:55 26° SW 17:28:35 29° W 17:31:08 10° NNW
H-2A R/B 2.2 17:26:15 23° S 17:29:43 77° WSW 17:35:12 10° NNW
Cosmos 2173 Rocket 4.2 17:24:39 10° NNW 17:30:57 70° W 17:37:07 10° S
Resurs 01 Rocket 1.5 17:31:29 63° SE 17:32:05 75° ENE 17:36:34 10° NNW
Okean 3 Rocket 3.8 17:29:18 10° NNW 17:33:52 71° W 17:35:44 34° S
Cosmos 1864 Rocket 4.3 17:28:24 10° NNW 17:34:35 85° ENE 17:37:42 32° SSE
SJ-6B 3.5 17:33:19 32° SSW 17:34:45 51° WSW 17:38:27 10° NNW
MetOp-B 4.2 17:35:21 51° ESE 17:36:17 59° ENE 17:41:34 10° NNW
Cosmos 1766 Rocket 3.5 17:33:02 10° NNW 17:37:24 79° W 17:38:17 56° S
SL-27 R/B 3.2 17:38:57 10° NW 17:41:33 49° NW 17:41:33 49° NW
ERS-1 Rocket 3.6 17:42:43 39° NE 17:42:43 39° NE 17:47:21 10° NNW
Cosmos 372 Rocket 3.8 17:39:17 10° NW 17:44:30 75° NE 17:45:10 65° ESE
ADEOS Rocket 3.5 17:36:43 10° NNE 17:44:31 64° ESE 17:51:57 10° S
Cosmos 1844 Rocket 3.2 17:39:19 10° WSW 17:44:55 60° NW 17:50:11 12° NE
COSMOS 2487 4.1 17:41:39 10° NNW 17:43:44 27° N 17:43:44 27° N
deb Kosmos-1763 4.5 17:42:01 10° NW 17:45:26 62° W 17:45:26 62° W
Cosmos 1500 Rocket 4.0 17:41:35 10° N 17:45:25 50° NE 17:45:25 50° NE
Cosmos 2123 Rocket 4.0 17:46:26 49° SE 17:47:31 55° E 17:53:38 10° NNE
GEOS 3 Rocket 3.5 17:46:37 59° E 17:47:35 79° NNE 17:52:46 10° WNW
Cosmos 1725 Rocket 4.0 17:43:07 10° NNW 17:49:25 83° W 17:52:34 32° S
Cosmos 1898 Rocket 4.3 17:44:48 10° NW 17:49:51 48° WSW 17:52:15 28° S
Cosmos 724 4.4 17:45:04 10° WSW 17:51:10 74° NNW 17:53:50 35° ENE
Resurs 1-3 3.8 17:50:39 56° SSW 17:51:24 68° WSW 17:55:48 10° NNW
Cosmos 1408 Rocket 3.5 17:48:35 10° NNW 17:52:55 82° W 17:52:55 82° W
Cosmos 2233 Rocket 3.9 17:47:17 10° NNW 17:53:36 79° ENE 17:55:23 50° SSE
CZ-2C R/B 3.5 17:55:57 36° S 17:58:25 73° WSW 18:04:13 10° NNW
Cosmos 2219 4.0 17:53:31 10° NW 17:58:53 40° NNE 18:00:03 36° NE
Terra 3.0 18:00:05 31° NE 18:00:05 31° NE 18:03:33 10° N
Cosmos 1818 3.7 17:53:52 10° WNW 17:59:21 66° NNE 18:00:13 57° ENE
Cosmos 1000 Rocket 4.4 17:53:42 10° S 17:59:56 88° ESE 18:06:16 10° NNE
MetOp-A 4.3 18:00:26 44° S 18:02:06 70° WSW 18:07:29 10° NNW
SL-08 RB Rocket 4.2 18:02:31 48° SSW 18:03:24 58° WSW 18:07:55 10° NNW
Cosmos 2278 Rocket 2.1 18:00:17 10° SW 18:05:59 86° SE 18:09:20 26° NE
Cosmos 1812 Rocket 4.4 18:03:23 10° SW 18:07:43 50° WNW 18:12:07 10° N
Cosmos 2034 Rocket 4.4 18:03:53 10° N 18:09:47 44° ENE 18:09:47 44° ENE
SPOT 5 3.5 18:11:12 49° NE 18:11:12 49° NE 18:15:56 10° NNW
Cosmos 1844 4.4 18:05:27 10° WSW 18:11:07 55° NW 18:16:12 13° NE
ATLAS 5 CENTAUR R/B 1.9 18:06:47 10° W 18:11:33 80° NNW 18:11:47 77° NNE
Meteor 2-3 Rocket 3.6 18:06:24 10° NNW 18:12:11 85° ENE 18:12:46 73° SE
Cosmos 1125 Rocket 3.4 18:08:44 10° NW 18:14:01 77° NE 18:14:01 77° NE
SL-24 R/B - RUBIN 2 4.4 18:09:35 10° W 18:15:05 66° N 18:16:16 54° NE
CZ-2C R/B 4.2 18:10:56 10° NNE 18:13:28 24° NE 18:13:28 24° NE
Cosmos 1607 4.1 18:10:29 10° W 18:16:37 65° N 18:18:08 49° ENE
ATLAS CENTAUR R/B 2.0 18:14:54 10° WNW 18:18:49 59° W 18:18:49 59° W
Cosmos 2150 Rocket 4.2 18:16:44 10° NW 18:22:12 68° WSW 18:22:32 66° SW
CZ-2C R/B 4.0 18:18:23 10° NNE 18:22:32 63° NW 18:22:32 63° NW
Cosmos 1408 4.2 18:21:35 10° NNW 18:24:02 34° NW 18:24:02 34° NW
Timation 2 Rocket 3.7 18:20:48 10° NW 18:26:51 82° NE 18:27:07 79° E
USA 238 DEB 4.3 18:24:34 10° SW 18:28:53 40° SSW 18:28:53 40° SSW
USA 238 4.3 18:24:41 10° SW 18:28:55 39° SSW 18:28:55 39° SSW
Lacrosse 5 4.3 18:30:16 10° WSW 18:31:53 11° SW 18:32:48 11° SW
Cosmos 2263 Rocket 3.6 18:27:30 10° WNW 18:32:35 33° N 18:35:02 23° NE
SPOT 1/Viking Rocket 3.7 18:33:20 65° N 18:33:20 65° N 18:37:48 10° NNW
Cosmos 1833 4.1 18:27:13 10° NW 18:32:47 78° WSW 18:32:47 78° WSW
Cosmos 1825 4.1 18:34:58 10° NNW 18:37:08 29° NW 18:37:08 29° NW
Cosmos 972 Rocket 4.2 18:35:50 10° NNW 18:40:29 69° WNW 18:40:29 69° WNW
Cosmos 1238 Rocket 4.3 18:43:13 10° NNW 18:49:48 65° W 18:51:01 55° SW
Cosmos 1513 Rocket 4.4 18:45:02 10° NNW 18:51:09 81° NE 18:51:09 81° NE
Cosmos 2227 Rocket 2.9 18:55:35 10° NW 19:00:43 47° NNE 19:00:43 47° NNE
SJ 16-02 3.6 18:59:15 10° NW 19:02:21 19° W 19:02:24 19° W
Cosmos 2297 Rocket 2.8 19:01:10 10° NW 19:06:05 49° N 19:06:05 49° N
Resurs 01 Rocket 3.6 19:09:05 24° W 19:09:05 24° W 19:12:44 10° NW
H-2A R/B 4.3 19:06:53 13° SW 19:10:03 21° W 19:14:06 10° NW
Cosmos 1464 Rocket 4.1 19:12:34 10° NNW 19:18:33 71° WNW 19:18:33 71° WNW
ERS-1 Rocket 4.0 19:22:43 43° NW 19:22:43 43° NW 19:26:23 10° NNW
Cosmos 1844 Rocket 4.1 19:24:40 10° WNW 19:29:49 34° NNW 19:31:49 27° NNE
ADEOS Rocket 4.2 19:22:24 10° NNE 19:29:55 53° NW 19:37:11 10° SW
Terra 3.4 19:38:59 32° NNW 19:38:59 32° NNW 19:41:37 10° NNW
Cosmos 2219 4.1 19:38:00 10° NW 19:41:58 46° NW 19:41:58 46° NW
SPOT 5 4.3 19:50:26 38° NW 19:50:26 38° NW 19:54:07 10° NNW
Cosmos 2278 Rocket 3.2 19:45:12 10° W 19:50:38 43° NNW 19:51:11 42° N
ATLAS 5 CENTAUR R/B 3.9 19:51:28 10° WNW 19:53:19 24° WNW 19:53:19 24° WNW
CZ-2C R/B 3.8 19:51:14 10° NNE 19:54:58 41° N 19:54:58 41° N
ATLAS CENTAUR R/B 4.3 19:54:15 10° WNW 19:55:01 14° WNW 19:55:01 14° WNW
Cosmos 2263 Rocket 3.5 20:12:32 10° NW 20:16:42 35° N 20:16:42 35° N
SL-16 R/B 4.3 20:17:01 21° NE 20:18:17 23° NNE 20:22:59 10° NNW
Cosmos 2227 Rocket 3.9 20:39:51 10° NW 20:42:32 29° NW 20:42:32 29° NW
Cosmos 2369 Rocket 4.3 20:51:19 18° NE 20:51:19 18° NE 20:52:46 10° NE
Cosmos 2297 Rocket 3.9 20:45:25 10° NW 20:47:52 26° NW 20:47:52 26° NW
Mayak 1.9 21:05:18 10° NNE 21:05:33 12° NNE 21:05:33 12° NNE
Cosmos 1844 Rocket 4.3 21:09:53 10° NW 21:13:27 30° NNW 21:13:27 30° NNW
Cosmos 1943 Rocket 4.0 21:29:09 25° NNE 21:29:09 25° NNE 21:31:38 10° NE
Cosmos 2278 Rocket 4.2 21:30:52 10° WNW 21:38:50 21° NE 21:41:07 10° ENE
ATLAS 3B R/B 4.4 21:53:19 21° ENE 21:53:19 21° ENE 21:55:17 10° ENE
CENTAUR R/B 3.8 22:03:41 41° ENE 22:03:41 41° ENE 22:08:41 10° E
SL-16 R/B 3.5 22:02:07 45° NNE 22:02:07 45° NNE 22:06:53 10° NNW
Cosmos 2263 Rocket 4.3 21:56:48 10° NW 21:58:22 19° NW 21:58:22 19° NW
Cosmos 2344 3.8 22:15:25 75° ENE 22:15:25 75° ENE 22:24:22 10° ENE
Cosmos 2369 Rocket 3.6 22:33:06 33° N 22:33:06 33° N 22:37:10 10° NE
Mayak 1.8 22:41:32 10° N 22:42:07 12° N 22:42:07 12° N
Cosmos 1980 Rocket 3.7 22:58:18 30° ENE 22:58:18 30° ENE 23:01:31 10° NE
Resurs 1-4 Rocket 3.8 22:52:06 10° NNE 22:55:31 29° ENE 22:55:31 29° ENE
NOSS 3-2 (C) 4.3 23:04:12 51° E 23:04:12 51° E 23:09:55 10° ESE
Cosmos 1943 Rocket 3.6 23:10:39 33° NNW 23:11:01 33° N 23:16:08 10° ENE
USA 229 DEB 4.3 23:19:28 46° E 23:19:28 46° E 23:24:53 10° ENE
USA 229 4.3 23:19:35 46° E 23:19:35 46° E 23:24:59 10° ENE
Cosmos 2278 Rocket 3.2 23:20:51 44° NNE 23:21:19 45° NNE 23:26:47 10° E
ADEOS II 3.9 23:22:33 10° NE 23:26:49 24° E 23:27:09 24° E
ARIANE 5 R/B 4.4 23:24:40 10° NE 23:28:37 23° E 23:28:42 23° E
CZ-2D R/B 3.2 23:26:36 10° NNE 23:30:23 41° ENE 23:30:23 41° ENE
NOSS 3-1 (C) 4.1 23:40:37 51° ESE 23:40:37 51° ESE 23:46:20 10° ENE
ATLAS 3B R/B 2.8 23:40:37 67° E 23:40:37 67° E 23:46:25 10° ESE
SL-16 R/B 3.7 23:47:13 33° NW 23:47:13 33° NW 23:50:41 10° NNW
MOS 1-B Rocket 4.2 23:42:17 10° NNE 23:46:56 61° NE 23:46:56 61° NE
Cosmos 1697 Rocket 3.2 23:50:50 57° NNE 23:50:50 57° NNE 23:55:20 10° NE
Cosmos 2369 4.2 23:50:58 56° NNE 23:50:58 56° NNE 23:55:31 10° NE
SL-16 R/B 3.2 23:53:17 39° ESE 23:53:17 39° ESE 23:58:06 10° NE
CZ-4B R/B 4.4 23:48:47 10° NNE 23:52:35 48° N 23:52:35 48° N
